EW2345 Weather Reports


Display with metric or nautical units.
time (UTC)temp
F
wind
direction
speed
MPH
gust
MPH
rain 1hr
in
rain 24hr
in
rain mn
in
humidity
%
barometer
mb
20260506041910 46 194 2.0 3.0 0.00 0.09 0.00 99 1015.7
20260506041410 46 194 1.0 3.0 0.00 0.09 0.00 99 1015.8
20260506040910 46 194 1.0 3.0 0.00 0.09 0.00 99 1015.9
20260506040410 46 194 1.0 5.0 0.00 0.09 0.00 99 1015.9
20260506035911 46 197 4.0 6.0 0.00 0.09 0.00 99 1015.8
20260506034910 47 197 1.0 3.0 0.00 0.09 0.00 99 1015.9
20260506034410 47 197 1.0 3.0 0.00 0.09 0.00 99 1015.9
20260506033910 47 197 1.0 2.0 0.00 0.09 0.00 99 1015.9
20260506033410 47 197 1.0 3.0 0.00 0.09 0.00 99 1015.9
20260506032911 47 197 2.0 3.0 0.00 0.09 0.00 98 1016.0
20260506032410 47 197 2.0 3.0 0.00 0.09 0.00 98 1015.9
20260506031910 47 197 0.0 3.0 0.00 0.09 0.00 98 1015.9
20260506031410 48 197 0.0 2.0 0.00 0.09 0.00 98 1015.9
20260506030910 48 197 0.0 2.0 0.00 0.09 0.00 99 1016.0
20260506030411 48 197 0.0 2.0 0.00 0.09 0.00 98 1016.0
20260506025911 48 197 0.0 2.0 0.00 0.09 0.00 98 1016.0
20260506025410 48 197 0.0 0.0 0.00 0.09 0.00 98 1016.0
20260506024910 48 197 0.0 3.0 0.00 0.09 0.00 98 1016.0
20260506023910 49 197 0.0 0.0 0.00 0.09 0.00 99 1015.9
20260506022411 49 197 0.0 0.0 0.00 0.09 0.00 99 1016.1
20260506021410 49 197 0.0 0.0 0.00 0.09 0.00 99 1016.1
20260506015911 49 197 0.0 2.0 0.00 0.09 0.00 98 1016.2
20260506015410 49 197 0.0 2.0 0.00 0.09 0.00 98 1016.3
20260506014910 49 197 1.0 2.0 0.00 0.09 0.00 98 1016.3
20260506014410 49 197 0.0 1.0 0.00 0.09 0.00 98 1016.4
20260506013910 49 197 0.0 0.0 0.00 0.09 0.00 98 1016.4
20260506013410 49 197 0.0 0.0 0.00 0.09 0.00 98 1016.5
20260506012911 49 197 0.0 2.0 0.00 0.09 0.00 98 1016.5
20260506012410 49 197 2.0 2.0 0.00 0.09 0.00 98 1016.6
20260506011910 49 197 0.0 2.0 0.00 0.09 0.00 98 1016.6
20260506011410 50 197 0.0 1.0 0.00 0.09 0.00 98 1016.6
20260506010910 50 197 0.0 0.0 0.00 0.09 0.00 98 1016.6
20260506010411 50 197 0.0 0.0 0.00 0.09 0.00 98 1016.7
20260506005911 50 197 0.0 0.0 0.00 0.09 0.00 98 1016.7
20260506005410 50 197 0.0 0.0 0.00 0.09 0.00 98 1016.7
20260506004910 50 197 0.0 0.0 0.00 0.09 0.00 98 1016.8
20260506004410 50 197 0.0 0.0 0.00 0.09 0.00 98 1016.8
20260506003910 50 197 0.0 0.0 0.00 0.09 0.00 98 1016.9
20260506002911 50 197 0.0 0.0 0.00 0.09 0.00 98 1017.0
20260506002410 50 197 0.0 0.0 0.00 0.09 0.00 98 1017.0
20260506001910 50 197 0.0 0.0 0.00 0.09 0.00 98 1017.1
20260506000910 50 197 0.0 0.0 0.00 0.09 0.00 98 1017.2
20260506000410 50 197 0.0 0.0 0.00 0.09 0.00 98 1017.2
20260505235911 51 197 0.0 0.0 0.00 0.09 0.00 98 1017.2
20260505235410 51 197 0.0 0.0 0.00 0.09 0.00 98 1017.2
20260505234410 51 197 0.0 0.0 0.00 0.09 0.00 98 1017.2
20260505233911 51 197 0.0 0.0 0.00 0.09 0.00 98 1017.3
20260505233411 51 197 0.0 0.0 0.00 0.09 0.00 98 1017.2
20260505232911 51 197 0.0 0.0 0.00 0.09 0.00 98 1017.2
20260505232410 51 197 0.0 0.0 0.00 0.09 0.00 98 1017.2
20260505231910 51 197 0.0 0.0 0.00 0.09 0.00 98 1017.2
20260505231411 51 197 1.0 2.0 0.00 0.09 0.00 98 1017.2
20260505230910 51 197 0.0 0.0 0.00 0.09 0.00 98 1017.2
20260505225911 51 197 0.0 0.0 0.00 0.09 0.00 98 1017.3
20260505225410 51 197 0.0 0.0 0.00 0.09 0.00 98 1017.3
20260505224911 51 197 0.0 0.0 0.00 0.09 0.00 98 1017.2
20260505224411 51 197 0.0 0.0 0.00 0.09 0.00 98 1017.3
20260505222410 51 197 1.0 3.0 0.00 0.09 0.00 97 1017.4
20260505221910 51 197 2.0 3.0 0.00 0.09 0.00 97 1017.4
20260505221411 51 197 1.0 3.0 0.00 0.09 0.00 97 1017.3
20260505220910 51 197 0.0 0.0 0.00 0.09 0.00 97 1017.3
20260505220410 51 197 0.0 0.0 0.00 0.09 0.00 97 1017.3
20260505215911 51 197 0.0 1.0 0.00 0.09 0.00 97 1017.3
20260505214910 51 197 4.0 6.0 0.00 0.09 0.09 97 1017.3
20260505214410 51 197 5.0 6.0 0.00 0.09 0.09 97 1017.3
20260505213911 51 197 2.0 3.0 0.00 0.09 0.09 97 1017.3
20260505213410 51 195 0.0 0.0 0.00 0.09 0.09 97 1017.4
20260505211910 51 195 2.0 3.0 0.00 0.09 0.09 97 1017.3
20260505211411 51 195 3.0 5.0 0.00 0.09 0.09 97 1017.3
20260505210910 51 195 5.0 5.0 0.00 0.09 0.09 97 1017.3
20260505210410 51 195 5.0 6.0 0.00 0.09 0.09 97 1017.3
20260505205411 51 195 4.0 5.0 0.00 0.09 0.09 96 1017.3
20260505204910 51 195 2.0 5.0 0.00 0.09 0.09 96 1017.3
20260505204410 51 195 3.0 5.0 0.00 0.09 0.09 96 1017.3
20260505203910 51 195 2.0 3.0 0.00 0.09 0.09 96 1017.2
20260505203410 51 195 0.0 0.0 0.00 0.09 0.09 96 1017.2
20260505202410 52 195 0.0 0.0 0.00 0.09 0.09 96 1017.2
20260505201910 52 195 0.0 0.0 0.00 0.09 0.09 96 1017.1
20260505201410 52 195 0.0 0.0 0.00 0.09 0.09 96 1017.0
20260505200411 52 195 0.0 0.0 0.00 0.09 0.09 95 1016.9
20260505195410 52 195 1.0 3.0 0.00 0.10 0.09 95 1016.7
20260505194910 52 195 0.0 0.0 0.00 0.11 0.09 95 1016.7
20260505194410 52 195 0.0 0.0 0.00 0.11 0.09 94 1016.6
20260505193910 52 195 0.0 0.0 0.00 0.11 0.09 93 1016.6
20260505193410 52 195 0.0 0.0 0.00 0.11 0.09 93 1016.6
20260505192411 53 195 1.0 5.0 0.00 0.13 0.09 93 1016.4
20260505191911 53 195 3.0 5.0 0.00 0.13 0.09 93 1016.3
20260505191410 53 195 2.0 5.0 0.00 0.13 0.09 93 1016.3
20260505190410 54 195 1.0 2.0 0.00 0.14 0.09 93 1016.4
20260505185912 54 223 0.0 0.0 0.00 0.14 0.09 94 1016.4
20260505184911 54 223 3.0 6.0 0.01 0.15 0.09 95 1016.2
20260505184410 54 223 3.0 6.0 0.01 0.15 0.09 95 1016.2
20260505183411 54 223 5.0 5.0 0.02 0.15 0.09 95 1016.3
20260505182911 55 223 4.0 5.0 0.02 0.15 0.09 95 1016.3
20260505182410 55 223 1.0 5.0 0.02 0.15 0.09 94 1016.3
20260505181911 55 223 1.0 3.0 0.02 0.15 0.09 94 1016.2
20260505180910 55 223 3.0 5.0 0.02 0.15 0.09 92 1016.4
20260505180410 56 223 3.0 6.0 0.02 0.15 0.09 91 1016.3
20260505175912 56 223 4.0 5.0 0.02 0.15 0.09 92 1016.4
20260505175410 56 223 5.0 7.0 0.02 0.15 0.09 91 1016.4
20260505174910 56 222 4.0 6.0 0.02 0.14 0.08 91 1016.4
20260505174410 56 222 3.0 6.0 0.02 0.14 0.08 91 1016.4
20260505173910 56 222 2.0 3.0 0.01 0.13 0.07 91 1016.5
20260505173411 56 222 0.0 1.0 0.00 0.13 0.06 91 1016.5
20260505172911 56 222 0.0 3.0 0.00 0.13 0.06 92 1016.4
20260505172411 56 222 0.0 3.0 0.00 0.13 0.06 92 1016.3
20260505171910 56 222 1.0 3.0 0.00 0.13 0.06 91 1016.3
20260505171410 56 222 1.0 5.0 0.00 0.13 0.06 91 1016.3
20260505170910 56 222 2.0 5.0 0.00 0.13 0.06 91 1016.4
20260505170411 56 222 0.0 3.0 0.00 0.13 0.06 89 1016.4
20260505165912 56 222 5.0 6.0 0.00 0.13 0.06 89 1016.4
20260505165410 56 222 5.0 8.0 0.00 0.13 0.06 88 1016.4
20260505164911 56 222 4.0 8.0 0.00 0.13 0.06 87 1016.3
20260505164410 56 222 0.0 2.0 0.00 0.13 0.06 88 1016.2
20260505162911 57 222 3.0 8.0 0.00 0.13 0.06 88 1016.3
20260505162410 57 223 6.0 8.0 0.00 0.13 0.06 86 1016.3
20260505161910 56 223 0.0 3.0 0.00 0.13 0.06 80 1016.3
20260505161410 57 223 1.0 5.0 0.00 0.13 0.06 85 1016.3
20260505160910 56 222 1.0 7.0 0.00 0.13 0.06 84 1016.4
20260505152911 55 9 2.0 7.0 0.05 0.13 0.06 86 1016.5
20260505152410 55 310 2.0 6.0 0.06 0.13 0.06 90 1016.5
20260505151910 54 15 2.0 7.0 0.06 0.13 0.06 90 1016.6
20260505151410 54 15 1.0 6.0 0.06 0.13 0.06 88 1016.5
20260505150911 53 15 6.0 8.0 0.06 0.13 0.06 89 1016.6
20260505140430 59 231 9.0 15.0 0.00 0.12 0.01 79 1016.5
20260505124930 59 231 10.0 16.0 0.00 0.12 0.01 79 1016.5
20260505124430 60 241 9.0 18.0 0.00 0.12 0.01 82 1016.4
20260505123430 59 238 9.0 14.0 0.00 0.12 0.01 89 1016.5
20260505122931 57 238 9.0 12.0 0.00 0.12 0.01 93 1016.6
20260505122430 55 241 8.0 13.0 0.00 0.13 0.01 88 1016.7
20260505121427 57 235 6.0 12.0 0.00 0.13 0.01 82 1016.8
20260505120931 58 240 8.0 12.0 0.00 0.13 0.01 80 1016.7
20260505120430 59 242 5.0 8.0 0.00 0.13 0.01 79 1016.7
20260505115932 60 233 8.0 12.0 0.00 0.13 0.01 76 1016.8
20260505115429 59 233 7.0 12.0 0.00 0.13 0.01 82 1016.8
20260505114930 57 233 3.0 8.0 0.00 0.13 0.01 81 1016.8
20260505114427 57 231 2.0 8.0 0.00 0.13 0.01 83 1016.8
20260505113930 56 236 5.0 8.0 0.00 0.13 0.01 81 1016.8
20260505113430 57 237 7.0 9.0 0.00 0.13 0.01 80 1016.9
20260505112931 57 216 5.0 9.0 0.00 0.13 0.01 81 1016.9
20260505112430 56 230 5.0 8.0 0.00 0.13 0.01 84 1016.9
20260505111430 57 226 7.0 10.0 0.00 0.13 0.01 81 1017.0
20260505110930 57 223 5.0 7.0 0.00 0.13 0.01 83 1017.1
20260505110430 56 223 3.0 6.0 0.00 0.13 0.01 88 1017.1
20260505101930 53 205 0.0 3.0 0.00 0.13 0.01 88 1017.1
20260505101430 53 205 1.0 5.0 0.00 0.13 0.01 87 1017.1
20260505100930 53 205 3.0 5.0 0.00 0.13 0.01 87 1017.1
20260505100430 53 205 1.0 3.0 0.00 0.13 0.01 88 1017.0
20260505095932 53 205 1.0 3.0 0.00 0.13 0.01 88 1017.0
20260505094930 53 205 0.0 2.0 0.00 0.13 0.01 89 1017.0
20260505094430 53 205 1.0 6.0 0.00 0.13 0.01 92 1016.9
20260505093430 53 205 1.0 5.0 0.00 0.13 0.01 94 1017.0
20260505092430 52 205 3.0 5.0 0.00 0.13 0.01 94 1017.0
20260505091430 52 205 3.0 5.0 0.00 0.13 0.01 94 1017.0
20260505090930 52 205 1.0 2.0 0.00 0.13 0.01 95 1017.0
20260505090430 52 205 1.0 6.0 0.00 0.13 0.01 95 1017.0
20260505085931 52 205 5.0 6.0 0.00 0.13 0.01 95 1017.0
20260505085431 53 205 5.0 7.0 0.00 0.13 0.01 96 1017.0
20260505084930 52 223 5.0 7.0 0.00 0.13 0.01 97 1017.0
20260505084430 51 244 2.0 5.0 0.00 0.13 0.01 97 1017.0
20260505083930 51 244 2.0 6.0 0.00 0.13 0.01 99 1017.0
20260505083431 52 246 1.0 3.0 0.00 0.13 0.01 100 1017.1
20260505082931 50 246 0.0 2.0 0.00 0.13 0.01 100 1017.1
20260505081930 50 246 3.0 5.0 0.01 0.13 0.01 100 1017.2
20260505081430 49 246 2.0 5.0 0.01 0.13 0.01 100 1017.1
20260505080931 49 246 0.0 1.0 0.01 0.13 0.01 100 1017.1
20260505080429 49 246 0.0 0.0 0.01 0.13 0.01 100 1017.1
20260505075931 49 246 0.0 0.0 0.01 0.13 0.01 100 1017.1
20260505075430 49 246 0.0 0.0 0.01 0.13 0.01 100 1017.2
20260505074930 49 246 1.0 2.0 0.01 0.13 0.01 100 1017.1
20260505074430 49 246 0.0 0.0 0.01 0.13 0.01 100 1017.1
20260505073931 49 246 0.0 1.0 0.01 0.13 0.01 100 1017.0
20260505073431 48 261 0.0 0.0 0.01 0.13 0.01 100 1017.0
20260505072931 48 261 1.0 3.0 0.01 0.13 0.01 100 1017.0
20260505072430 48 261 0.0 0.0 0.00 0.12 0.00 100 1017.0
20260505070930 48 261 0.0 0.0 0.00 0.12 0.00 100 1016.9
20260505070430 48 261 0.0 0.0 0.00 0.12 0.00 100 1016.9
20260505065932 47 261 0.0 0.0 0.00 0.12 0.00 100 1016.9
20260505064430 47 261 0.0 0.0 0.00 0.12 0.00 100 1016.8
20260505063930 46 261 0.0 0.0 0.00 0.12 0.00 100 1016.8
20260505062932 46 261 0.0 0.0 0.00 0.12 0.00 99 1016.7
20260505061931 46 261 0.0 0.0 0.00 0.13 0.00 99 1016.7
20260505060930 46 261 0.0 0.0 0.00 0.13 0.00 99 1016.7
20260505060430 46 261 0.0 0.0 0.00 0.13 0.00 99 1016.7
20260505055931 46 261 0.0 0.0 0.00 0.13 0.00 99 1016.7
20260505055430 46 261 0.0 0.0 0.00 0.13 0.00 99 1016.7
20260505054936 46 288 0.0 0.0 0.00 0.13 0.00 98 1016.7
20260505053930 49 261 0.0 0.0 0.00 0.13 0.00 95 1016.6
20260505053430 49 261 0.0 0.0 0.00 0.13 0.00 95 1016.6
20260505052931 49 261 0.0 0.0 0.00 0.13 0.00 95 1016.6
20260505051930 49 261 0.0 0.0 0.00 0.13 0.00 95 1016.5
20260505051430 49 261 0.0 2.0 0.00 0.13 0.00 95 1016.5
20260505050931 49 261 1.0 2.0 0.00 0.13 0.00 95 1016.6